Regional Weather Roundup
Issued by NWS Charleston, SC

Current Version | Previous Version | Graphics & Text | Print | Product List | Glossary On
Versions: 1 2 3 4 5 6 7 8 9 10 11 12 13 14 15 16 17 18 19 20 21 22 23 24 25 26 27 28 29 30 31 32 33 34 35 36 37 38 39 40 41 42 43 44 45 46 47 48 49 50
000 ASUS42 KCHS 060812 RWRCHS REGIONAL WEATHER ROUNDUP NATIONAL WEATHER SERVICE CHARLESTON SC 400 AM EDT MON JUL 06 2015 NOTE: "FAIR" INDICATES FEW OR NO CLOUDS BELOW 12,000 FEET WITH NO SIGNIFICANT WEATHER AND/OR OBSTRUCTIONS TO VISIBILITY. NOT ALL STATIONS ARE QUALITY CONTROLLED BY THE NATIONAL WEATHER SERVICE. USE DATA WITH CAUTION...ESPECIALLY DEWPOINT OBSERVATIONS. SCZ027-030-031-034>040-042>050-060900- ...SOUTHEAST SOUTH CAROLINA... CITY SKY/WX TMP DP RH WIND PRES REMARKS N CHARLESTON PTCLDY 73 68 84 SW6 30.11F WATERFRONT PAR N/A 76 73 90 VRB3 30.09F MOUNT PLEASANT FAIR 72 72 100 SW3 30.12S JOHNS ISLAND FAIR 73 72 94 CALM 30.12S PINOPOLIS NOT AVBL MONCKS CORNER FAIR 72 68 88 CALM 30.11S SUMMERVILLE FAIR 70 70 100 CALM 30.12F BEAUFORT MCAS PTCLDY 70 68 93 SW3 30.12S BEAUFORT ARPT FAIR 72 72 100 CALM 30.11S HILTON HEAD IS PTCLDY 72 70 94 SW5 30.13S WALTERBORO CLOUDY 70 68 94 W3 30.12S ALLENDALE CLOUDY 72 72 100 CALM 30.11S FOG ...SOUTHERN MIDLANDS AND PEE DEE... CITY SKY/WX TMP DP RH WIND PRES REMARKS GEORGETOWN NOT AVBL KINGSTREE NOT AVBL ORANGEBURG MOCLDY 70 69 97 SW6 30.11F BARNWELL CLOUDY 72 72 100 S3 30.12S AIKEN NOT AVBL MANNING LGT RAIN 72 72 100 CALM 30.10F COLUMBIA CLOUDY 73 70 90 SW5 30.09S SUMTER CLEAR 72 69 90 SW7 30.08F FLORENCE CLEAR 73 71 93 S6 30.10S MYRTLE BEACH PTCLDY 77 72 83 SW3 30.13S N MYRTLE BEACH PTCLDY 78 71 79 SW6 30.11R $$ GAZ063-065-086>088-099>101-113>116-118-119-134>141-150-060900- ...SOUTHEAST GEORGIA... CITY SKY/WX TMP DP RH WIND PRES REMARKS SAVANNAH ARPT CLOUDY 70 68 93 W6 30.13F HUNTER AAF CLOUDY 72 72 100 SW5 30.11S FORT STEWART CLOUDY 71 69 92 SW7 30.11S STATESBORO NOT AVBL SYLVANIA CLOUDY 73 73 100 CALM 30.13S FOG CLAXTON CLOUDY 72 72 100 CALM 30.13R ...CSRA...CENTRAL AND FAR SOUTHEAST GEORGIA... CITY SKY/WX TMP DP RH WIND PRES REMARKS THOMSON CLEAR 73 73 99 CALM 30.14S AUGUSTA-BUSH CLEAR 71 70 96 S5 30.09S AUGUSTA-DANIEL CLEAR 73 69 87 CALM 30.11R SWAINSBORO CLOUDY N/A N/A N/A SW3 30.12S VIDALIA CLOUDY 73 70 88 SW3 30.12S EASTMAN FAIR 71 71 100 CALM 30.13F HAZLEHURST FAIR 73 73 100 CALM 30.11S ALMA CLOUDY 71 70 96 SW5 30.12S WAYCROSS CLOUDY 73 73 100 SW3 30.13S JESUP CLOUDY 73 72 94 CALM 30.14R BAXLEY CLOUDY 73 72 94 CALM 30.12S BRUNSWICK MOCLDY 68 68 100 CALM 30.14R SAINT SIMONS PTCLDY 70 69 97 CALM 30.13S $$ SCZ027-028-034-036>038-045-046-048>050-GAZ119-141-060900- ...LAKE AND SUPPLEMENTAL COASTAL OBSERVATIONS... STATION/POSITION TIME TEMP WIND PRES WAVE SWELL AIR SEA DIR/SP/G HT/PER HT/PER/DIR (UTC) (F) (DEG/KT/KT) (MB) (FT/S) (FT/S/D) UPR LAKE MARION NOT AVBL WINYAH BAY NOT AVBL LAKE MURRAY 0700 74 180/ 7/ 9 1018.6R ACE BASIN NERRS NOT AVBL FORT PULASKI 0700 73 83 200/ 6/ 8 1020.7F SAPELO ISLAND 0700 72 210/ 5 1020.0F $$ ANZ835-935-AMZ111-154-330-350-352-354-370-450-454-472-060900- ...C-MAN AND BUOY OBSERVATIONS... STATION/POSITION TIME TEMP WIND PRES WAVE SWELL AIR SEA DIR/SP/G HT/PER HT/PER/DIR (UTC) (F) (DEG/KT/KT) (MB) (FT/S) (FT/S/D) BUOY 41004 0750 81 81 230/ 14/ 16 1019.1F 3/ 8 2/ 8 BUOY 41008 0750 75 79 250/ 8/ 8 1020.2F 2/10 2/110/10 FOLLY BEACH CMAN 0700 76 250/ 4/ 5 1020.0F CAPERS NEARSHORE 0708 80 240/ 12/ 16 1019.9F FRIPP NEARSHORE 0700 78 250/ 12/ 14 1019.9F STATION/POSITION TIME TEMP WIND PRES WAVE SWELL AIR SEA DIR/SP/G HT/PER HT/PER/DIR (UTC) (F) (DEG/KT/KT) (MB) (FT/S) (FT/S/D) 5E ST. MARYS GA 0721 77 N/A 1/10 FRYING PAN BUOY 0750 80 79 210/ 12/ 14 1020.3F 3/ 9 2/120/ 9 BUOY 41025 0750 80 80 230/ 10/ 14 1020.2R 3/ 8 2/120/ 8 CAPE LOOKOUT NC 0700 79 210/ 8/ 11 1020.2S BUOY 41002 0750 80 80 190/ 6/ 8 1022.4F 4/ 9 3/130/ 9 BUOY 41010 0720 83 84 190/ 14/ 16 1021.1S ST AUGUSTINE FL 0800 71 71 270/ 2/ 3 1021.4F $$

USA.gov is the U.S. government's official web portal to all federal, state and local government web resources and services.